Location: Caseificio
(44.7500°N, 11.0500°E)
Time: 00:21:41
(UTC+00:00)

USA 229 DEB - Pass Details

Date: 26 May 2022
Orbit: 934 x 1278 km, 63.4° (Epoch: 24 May)

Event Time Altitude Azimuth Distance (km) Brightness Sun altitude
Rises 01:02:27 0° 317° (NW) 4,016 7.0 -19.6°
Reaches altitude 10° 01:05:18 10° 309° (NW) 3,100 6.2 -19.3°
Maximum altitude 01:12:02 37° 245° (WSW) 1,811 4.5 -18.8°
Enters shadow 01:15:06 27° 204° (SSW) 2,176 4.7 -18.5°
